Flag for Switzerland Weather past 2 weeks in La-Chaux-de-Fonds, Neuchâtel, Switzerland

Now
36 °F

Chilly.


Feels Like: 36 °F
Forecast: 35 / 60 °F
Wind: 2 mph from North

Location: Les Eplatures

Current Time: May 27, 2015 at 6:23:50 AM

Latest Report: May 27, 2015 at 5:20 AM


Visibility: 6 mi

Pressure: 30.21 "Hg

Humidity: 93%

Dew point: 34 °F

Location of La-Chaux-de-FondsLocation

Historic Weather in La-Chaux-de-Fonds — Graph

°F

La-Chaux-de-Fonds temperature yesterday

Maximum temperature yesterday: 48 °F (at 11:20 AM)
Minimum temperature yesterday: 41 °F (at 10:50 PM)
Average temperature yesterday: 44 °F

Past Weeks' High & Low Weather Summary

 TemperatureHumidityPressure
High77 °F (May 13, 4:20 PM)100% (May 15, 7:20 PM)30.36 "Hg (May 15, 7:20 PM)
Low34 °F (May 15, 12:50 PM)21% (May 12, 5:50 PM)29.86 "Hg (May 18, 5:50 PM)
Average49 °F75%30.09 "Hg
* Reported May 12 4:20 AM — May 27 4:50 AM, La-Chaux-de-Fonds, Weather by CustomWeather, © 2015

Note: Actual official high and low records may vary slightly from our data, if they occured in-between our weather recording intervals... More about our weather records

Advertising

La-Chaux-de-Fonds weather history for previous 24 hours

 ConditionsComfort  
Time TempWeatherWind HumidityBarometerVisibility
4:50 AM
Wed, May 27
36 °FChilly.1 mph93%30.21 "Hg6 mi
4:20 AM36 °FChilly.3 mph93%30.21 "HgN/A
3:50 AM37 °FPassing clouds.3 mph93%30.21 "HgN/A
3:20 AM37 °FPassing clouds.6 mph93%30.21 "Hg6 mi
2:50 AM39 °FChilly.6 mph87%30.21 "HgN/A
2:20 AM39 °FClear.6 mphN/A30.18 "HgN/A
1:50 AM39 °FPassing clouds.5 mph93%30.18 "HgN/A
1:20 AM41 °FClear.7 mph87%30.21 "HgN/A
12:50 AM41 °FPartly cloudy.7 mph93%30.18 "HgN/A
12:20 AM43 °FPartly cloudy.9 mph93%30.18 "HgN/A
11:20 PM
Tue, May 26
41 °FDrizzle. Low clouds.3 mph100%30.18 "HgN/A
10:50 PM41 °FDrizzle. Partly sunny.5 mph100%30.18 "Hg6 mi
10:20 PM43 °FDrizzle. Partly sunny.5 mph93%30.18 "HgN/A
9:50 PM43 °FLow clouds.5 mph93%30.18 "Hg4 mi
9:20 PM43 °FDrizzle. Low clouds.7 mph93%30.18 "HgN/A
8:50 PM43 °FDrizzle. Fog.3 mph93%30.15 "Hg3 mi
8:20 PM43 °FSprinkles. Fog.5 mph93%30.15 "Hg1 mi
7:50 PM43 °FFog.3 mph100%30.15 "Hg1 mi
7:20 PM43 °FFog.5 mph100%30.15 "Hg1 mi
6:50 PM43 °FFog.5 mph100%30.12 "Hg1 mi
6:20 PM43 °FFog.2 mph100%30.12 "Hg1 mi
5:50 PM43 °FFog.3 mph100%30.12 "Hg1 mi
5:20 PM43 °FDrizzle. Fog.5 mph100%30.12 "Hg2 mi
4:50 PM43 °FDrizzle. Mostly cloudy.6 mph100%30.12 "Hg1 mi
4:20 PM43 °FDrizzle. Dense fog.5 mph100%30.09 "Hg0 mi
3:50 PM43 °FLight rain. Dense fog.3 mph100%30.09 "Hg0 mi
3:20 PM43 °FLight rain. Dense fog.5 mph100%30.09 "Hg0 mi
2:50 PM43 °FFog.8 mph100%30.09 "Hg0 mi
2:20 PM45 °FFog.7 mph93%30.09 "Hg0 mi
1:50 PM45 °FLight rain. Fog.7 mph93%30.09 "Hg1 mi
1:20 PM48 °FMostly cloudy.3 mph82%30.07 "Hg4 mi
12:50 PM48 °FBroken clouds.2 mph87%30.07 "HgN/A
12:20 PM46 °FMostly cloudy.3 mph87%30.07 "Hg4 mi
11:50 AM46 °FDrizzle. Broken clouds.5 mph87%30.07 "Hg3 mi
11:20 AM48 °FBroken clouds.3 mph87%30.07 "Hg6 mi
10:50 AM46 °FBroken clouds.3 mph87%30.07 "Hg6 mi
10:20 AM46 °FPartly sunny.3 mph93%30.04 "Hg6 mi
9:50 AM46 °FDrizzle. Partly sunny.2 mph87%30.04 "Hg3 mi
9:20 AM45 °FDrizzle. Partly sunny.3 mph93%30.04 "Hg3 mi
8:50 AM45 °FPartly sunny.5 mph93%30.04 "Hg4 mi
8:20 AM45 °FDrizzle. Partly sunny.1 mph93%30.04 "Hg2 mi
7:50 AM45 °FLow clouds.2 mph93%30.01 "Hg5 mi
7:20 AM45 °FLow clouds.2 mph93%30.01 "HgN/A
6:50 AM45 °FPartly cloudy.2 mph93%30.01 "HgN/A
6:20 AM45 °FPassing clouds.1 mph93%30.01 "HgN/A
Weather by CustomWeather, © 2015

See weather overviewHow to use our weather pages